{"data":{"norad_id":66588,"epoch":"2026-09-20T19:58:36.551136Z","epoch_age_seconds":57816,"freshness":"FRESH","line1":"1 66588U 25270A   26263.83236749  .00012395  00000+0  45903-3 0  9993","line2":"2 66588  43.0035  33.8407 0003232  20.1306 339.9673 15.27589984 47556","mean_motion":15.27589984,"eccentricity":0.0003232,"inclination_deg":43.0035,"raan_deg":33.8407,"arg_perigee_deg":20.1306,"mean_anomaly_deg":339.9673,"bstar":0.00045903,"rev_number":4755,"period_min":94.266132606431,"perigee_km":480.80167483075,"apogee_km":485.23672619876,"semimajor_km":6861.1562005148,"source":"CELESTRAK","updated_at":"2026-09-21T09:00:35.975620Z"}}